LHA1127 EDDN-EDHL

Flight info

Callsign LHA1127
Flight time 1h 5m
Altitude 24000
Route ERET1G ERETO DCT LONLI M726 LASTO M852 HLZ Z990 DIRBO T902 RARUP RARU2R
Aircraft DH8D/M-SDE1E2FGIJ1RWYZ/S

Departure

Time 2026-04-22 17:46
Airport Nuremberg Airport (EDDN)

Arrival

Time 2026-04-22 18:51
Airport Lübeck Blankensee Airport (EDHL)
Time Latitude Longitude Altitude Speed Heading
2026-04-22 17:27 49.49586 11.08280 1052 ft 0 kts 188°
2026-04-22 17:42 49.49571 11.08277 1052 ft 5 kts 188°
2026-04-22 17:42 49.49542 11.08332 1052 ft 11 kts 56°
2026-04-22 17:42 49.49613 11.08399 1052 ft 13 kts 66°
2026-04-22 17:43 49.49608 11.08563 1052 ft 17 kts 95°
2026-04-22 17:43 49.49588 11.08766 1052 ft 20 kts 98°
2026-04-22 17:43 49.49565 11.08986 1052 ft 20 kts 99°
2026-04-22 17:43 49.49551 11.09127 1052 ft 13 kts 97°
2026-04-22 17:44 49.49538 11.09275 1052 ft 14 kts 97°
2026-04-22 17:44 49.49552 11.09398 1052 ft 10 kts 58°
2026-04-22 17:44 49.49590 11.09487 1052 ft 9 kts 50°
2026-04-22 17:44 49.49644 11.09548 1052 ft 9 kts
2026-04-22 17:45 49.49707 11.09506 1052 ft 10 kts 286°
2026-04-22 17:45 49.49709 11.09475 1052 ft 0 kts 276°
2026-04-22 17:45 49.49710 11.09453 1052 ft 21 kts 277°
2026-04-22 17:45 49.49789 11.08614 1052 ft 128 kts 280°
2026-04-22 17:46 49.49981 11.07197 1596 ft 143 kts 289°
2026-04-22 17:46 49.50117 11.05635 2407 ft 152 kts 279°
2026-04-22 17:46 49.50218 11.03987 3105 ft 170 kts 281°
2026-04-22 17:46 49.50335 11.02047 3767 ft 189 kts 279°
2026-04-22 17:47 49.50462 11.00058 4616 ft 194 kts 279°
2026-04-22 17:47 49.50598 10.98006 5492 ft 197 kts 279°
2026-04-22 17:47 49.50746 10.95925 6323 ft 204 kts 279°
2026-04-22 17:47 49.50928 10.93615 6757 ft 232 kts 282°
2026-04-22 17:48 49.51275 10.92005 6906 ft 247 kts 304°
2026-04-22 17:48 49.53087 10.90472 8105 ft 226 kts
2026-04-22 17:48 49.54611 10.90877 8922 ft 224 kts 15°
2026-04-22 17:48 49.56119 10.91352 9779 ft 225 kts 13°
2026-04-22 17:49 49.57665 10.91728 10586 ft 227 kts 11°
2026-04-22 17:49 49.59213 10.91988 11352 ft 230 kts
2026-04-22 17:49 49.60812 10.92034 12123 ft 232 kts
2026-04-22 17:49 49.62437 10.92032 12854 ft 235 kts
2026-04-22 17:50 49.64071 10.92024 13562 ft 237 kts
2026-04-22 17:50 49.65709 10.92013 14247 ft 239 kts
2026-04-22 17:50 49.67355 10.92001 14886 ft 241 kts
2026-04-22 17:50 49.69043 10.91987 15500 ft 244 kts
2026-04-22 17:51 49.70734 10.91971 16102 ft 246 kts
2026-04-22 17:51 49.72421 10.91954 16672 ft 248 kts
2026-04-22 17:51 49.74148 10.91936 17244 ft 250 kts
2026-04-22 17:51 49.75900 10.91917 17773 ft 253 kts
2026-04-22 17:52 49.77654 10.91898 18302 ft 255 kts
2026-04-22 17:52 49.79434 10.91878 18824 ft 257 kts
2026-04-22 17:52 49.81198 10.91859 19340 ft 259 kts
2026-04-22 17:52 49.83002 10.91839 19848 ft 261 kts
2026-04-22 17:53 49.84824 10.91819 20317 ft 263 kts
2026-04-22 17:53 49.86658 10.91799 20747 ft 265 kts
2026-04-22 17:53 49.88511 10.91778 21161 ft 267 kts
2026-04-22 17:53 49.90355 10.91757 21542 ft 269 kts
2026-04-22 17:54 49.92238 10.91733 21930 ft 271 kts
2026-04-22 17:54 49.94102 10.91710 22268 ft 273 kts
2026-04-22 17:54 49.96013 10.91687 22613 ft 275 kts
2026-04-22 17:54 49.97927 10.91665 22929 ft 277 kts
2026-04-22 17:55 49.99200 10.91651 23138 ft 278 kts
2026-04-22 17:55 50.01798 10.91623 23533 ft 280 kts
2026-04-22 17:55 50.03728 10.91602 23806 ft 281 kts
2026-04-22 17:55 50.05720 10.91581 23967 ft 286 kts
2026-04-22 17:56 50.07695 10.91559 23997 ft 287 kts
2026-04-22 17:56 50.09690 10.91532 24000 ft 287 kts
2026-04-22 17:56 50.11703 10.91506 24000 ft 287 kts
2026-04-22 17:56 50.13694 10.91482 24000 ft 287 kts
2026-04-22 17:57 50.15669 10.91458 23998 ft 287 kts
2026-04-22 17:57 50.17666 10.91432 23996 ft 288 kts
2026-04-22 17:57 50.19678 10.91407 23996 ft 288 kts
2026-04-22 17:57 50.21674 10.91382 23995 ft 288 kts
2026-04-22 17:58 50.23636 10.91354 24219 ft 282 kts
2026-04-22 17:58 50.25579 10.91330 24276 ft 281 kts
2026-04-22 17:58 50.27553 10.91308 24288 ft 283 kts
2026-04-22 17:58 50.29525 10.91287 24291 ft 285 kts
2026-04-22 17:59 50.31503 10.91265 24290 ft 286 kts
2026-04-22 17:59 50.33487 10.91244 24288 ft 288 kts
2026-04-22 17:59 50.35502 10.91221 24289 ft 289 kts
2026-04-22 17:59 50.37509 10.91199 24290 ft 290 kts
2026-04-22 18:00 50.38856 10.91183 24289 ft 290 kts
2026-04-22 18:00 50.41538 10.91153 24288 ft 291 kts
2026-04-22 18:00 50.43564 10.91130 24288 ft 291 kts
2026-04-22 18:00 50.45585 10.91107 24287 ft 292 kts
2026-04-22 18:01 50.47614 10.91084 24286 ft 292 kts
2026-04-22 18:01 50.49658 10.91061 24288 ft 293 kts
2026-04-22 18:01 50.51686 10.91038 24287 ft 293 kts
2026-04-22 18:01 50.53710 10.91015 24289 ft 293 kts
2026-04-22 18:02 50.55737 10.90992 24291 ft 293 kts
2026-04-22 18:02 50.57790 10.90968 24290 ft 293 kts
2026-04-22 18:02 50.59813 10.90945 24291 ft 292 kts
2026-04-22 18:02 50.61856 10.90921 24292 ft 292 kts
2026-04-22 18:03 50.63859 10.90898 24295 ft 292 kts
2026-04-22 18:03 50.65898 10.90875 24298 ft 292 kts
2026-04-22 18:03 50.67913 10.90852 24297 ft 292 kts
2026-04-22 18:03 50.69934 10.90830 24298 ft 292 kts
2026-04-22 18:04 50.71956 10.90807 24297 ft 291 kts
2026-04-22 18:04 50.73977 10.90784 24296 ft 291 kts
2026-04-22 18:04 50.76014 10.90760 24299 ft 291 kts
2026-04-22 18:04 50.78028 10.90738 24297 ft 291 kts
2026-04-22 18:05 50.80059 10.90715 24299 ft 291 kts
2026-04-22 18:05 50.82059 10.90692 24300 ft 291 kts
2026-04-22 18:05 50.84081 10.90669 24305 ft 291 kts
2026-04-22 18:05 50.86115 10.90645 24309 ft 291 kts
2026-04-22 18:06 50.88131 10.90622 24305 ft 291 kts
2026-04-22 18:06 50.90151 10.90600 24304 ft 291 kts
2026-04-22 18:06 50.92160 10.90577 24306 ft 290 kts
2026-04-22 18:06 50.94180 10.90553 24313 ft 290 kts
2026-04-22 18:07 50.96176 10.90531 24319 ft 290 kts
2026-04-22 18:07 50.98199 10.90509 24318 ft 290 kts
2026-04-22 18:07 51.00198 10.90486 24316 ft 289 kts
2026-04-22 18:07 51.02203 10.90463 24320 ft 290 kts
2026-04-22 18:08 51.04215 10.90439 24318 ft 290 kts
2026-04-22 18:08 51.06250 10.90416 24315 ft 290 kts
2026-04-22 18:08 51.08254 10.90393 24313 ft 290 kts
2026-04-22 18:08 51.10271 10.90369 24312 ft 291 kts
2026-04-22 18:09 51.12289 10.90346 24310 ft 291 kts
2026-04-22 18:09 51.14336 10.90323 24308 ft 292 kts
2026-04-22 18:09 51.16342 10.90300 24305 ft 292 kts
2026-04-22 18:09 51.18370 10.90276 24306 ft 292 kts
2026-04-22 18:10 51.20412 10.90252 24307 ft 293 kts
2026-04-22 18:10 51.22438 10.90229 24304 ft 293 kts
2026-04-22 18:10 51.24466 10.90205 24304 ft 293 kts
2026-04-22 18:10 51.26507 10.90181 24302 ft 293 kts
2026-04-22 18:11 51.28555 10.90157 24300 ft 293 kts
2026-04-22 18:11 51.30572 10.90133 24296 ft 293 kts
2026-04-22 18:11 51.32628 10.90109 24299 ft 293 kts
2026-04-22 18:11 51.34655 10.90086 24298 ft 293 kts
2026-04-22 18:12 51.36678 10.90062 24299 ft 293 kts
2026-04-22 18:12 51.38733 10.90038 24296 ft 294 kts
2026-04-22 18:12 51.40084 10.90023 24301 ft 294 kts
2026-04-22 18:12 51.42797 10.89991 24304 ft 294 kts
2026-04-22 18:13 51.44826 10.89967 24302 ft 294 kts
2026-04-22 18:13 51.46881 10.89943 24302 ft 294 kts
2026-04-22 18:13 51.48913 10.89921 24304 ft 294 kts
2026-04-22 18:13 51.50956 10.89897 24305 ft 294 kts
2026-04-22 18:14 51.52998 10.89872 24303 ft 294 kts
2026-04-22 18:14 51.55035 10.89820 24303 ft 294 kts
2026-04-22 18:14 51.57100 10.89744 24304 ft 294 kts
2026-04-22 18:14 51.59117 10.89665 24303 ft 294 kts
2026-04-22 18:15 51.61184 10.89584 24303 ft 295 kts
2026-04-22 18:15 51.63229 10.89502 24303 ft 295 kts
2026-04-22 18:15 51.65256 10.89420 24303 ft 295 kts
2026-04-22 18:15 51.67318 10.89337 24303 ft 295 kts
2026-04-22 18:16 51.69374 10.89253 24303 ft 296 kts
2026-04-22 18:16 51.71408 10.89170 24298 ft 296 kts
2026-04-22 18:16 51.73481 10.89086 24299 ft 296 kts
2026-04-22 18:16 51.75534 10.89001 24299 ft 296 kts
2026-04-22 18:17 51.77568 10.88917 24298 ft 296 kts
2026-04-22 18:17 51.79643 10.88832 24302 ft 296 kts
2026-04-22 18:17 51.81686 10.88747 24303 ft 296 kts
2026-04-22 18:17 51.83743 10.88662 24304 ft 296 kts
2026-04-22 18:18 51.85807 10.88577 24304 ft 296 kts
2026-04-22 18:18 51.87867 10.88492 24306 ft 296 kts
2026-04-22 18:18 51.89910 10.88407 24305 ft 296 kts
2026-04-22 18:18 51.91959 10.88322 24306 ft 296 kts
2026-04-22 18:19 51.94036 10.88236 24307 ft 297 kts
2026-04-22 18:19 51.96092 10.88150 24309 ft 297 kts
2026-04-22 18:19 51.98148 10.88064 24306 ft 297 kts
2026-04-22 18:19 52.00194 10.87979 24308 ft 297 kts
2026-04-22 18:20 52.02276 10.87892 24303 ft 297 kts
2026-04-22 18:20 52.04317 10.87808 24300 ft 297 kts
2026-04-22 18:20 52.06397 10.87721 24304 ft 297 kts
2026-04-22 18:20 52.08452 10.87635 24301 ft 297 kts
2026-04-22 18:21 52.10509 10.87548 24305 ft 297 kts
2026-04-22 18:21 52.12586 10.87461 24307 ft 297 kts
2026-04-22 18:21 52.14649 10.87375 24305 ft 297 kts
2026-04-22 18:21 52.16694 10.87289 24305 ft 297 kts
2026-04-22 18:22 52.18781 10.87201 24300 ft 298 kts
2026-04-22 18:22 52.20837 10.87115 24302 ft 298 kts
2026-04-22 18:22 52.22899 10.87028 24300 ft 298 kts
2026-04-22 18:22 52.24980 10.86940 24294 ft 298 kts
2026-04-22 18:23 52.27021 10.86854 24294 ft 298 kts
2026-04-22 18:23 52.28764 10.86780 24298 ft 298 kts
2026-04-22 18:23 52.30512 10.86706 24297 ft 298 kts
2026-04-22 18:24 52.34632 10.86532 24301 ft 298 kts
2026-04-22 18:24 52.36715 10.86444 24302 ft 298 kts
2026-04-22 18:24 52.40837 10.86269 24299 ft 299 kts
2026-04-22 18:25 52.42913 10.86181 24300 ft 299 kts
2026-04-22 18:25 52.45000 10.86092 24298 ft 300 kts
2026-04-22 18:25 52.47083 10.86004 24297 ft 300 kts
2026-04-22 18:26 52.51242 10.85826 24297 ft 300 kts
2026-04-22 18:26 52.53335 10.85659 24301 ft 301 kts 360°
2026-04-22 18:26 52.55400 10.85351 24081 ft 301 kts 359°
2026-04-22 18:26 52.57483 10.85021 23700 ft 304 kts 358°
2026-04-22 18:27 52.59606 10.84683 23305 ft 305 kts 358°
2026-04-22 18:27 52.61718 10.84345 22916 ft 304 kts 358°
2026-04-22 18:27 52.63803 10.84011 22527 ft 303 kts 358°
2026-04-22 18:27 52.65878 10.83679 22143 ft 301 kts 358°
2026-04-22 18:28 52.67950 10.83348 21755 ft 300 kts 358°
2026-04-22 18:28 52.70021 10.83018 21362 ft 298 kts 358°
2026-04-22 18:28 52.72073 10.82691 20971 ft 297 kts 358°
2026-04-22 18:28 52.74115 10.82365 20586 ft 295 kts 358°
2026-04-22 18:29 52.76158 10.82039 20197 ft 294 kts 358°
2026-04-22 18:29 52.78157 10.81749 19812 ft 291 kts
2026-04-22 18:29 52.80162 10.82036 19419 ft 286 kts 12°
2026-04-22 18:29 52.82100 10.82615 19037 ft 284 kts 12°
2026-04-22 18:30 52.84024 10.83205 18662 ft 283 kts 13°
2026-04-22 18:30 52.87887 10.84388 17892 ft 280 kts 12°
2026-04-22 18:30 52.89785 10.84966 17515 ft 278 kts 12°
2026-04-22 18:31 52.91668 10.85539 17142 ft 277 kts 12°
2026-04-22 18:31 52.93548 10.86110 16767 ft 276 kts 12°
2026-04-22 18:31 52.95432 10.86682 16393 ft 275 kts 12°
2026-04-22 18:31 52.97310 10.87252 16018 ft 274 kts 12°
2026-04-22 18:32 52.99171 10.87818 15646 ft 275 kts 12°
2026-04-22 18:32 53.01044 10.88387 15273 ft 275 kts 12°
2026-04-22 18:32 53.02939 10.88964 14894 ft 276 kts 12°
2026-04-22 18:32 53.04816 10.89535 14518 ft 276 kts 12°
2026-04-22 18:33 53.06700 10.90107 14136 ft 276 kts 12°
2026-04-22 18:33 53.08570 10.90676 13760 ft 276 kts 12°
2026-04-22 18:33 53.10466 10.91254 13405 ft 275 kts 11°
2026-04-22 18:33 53.12325 10.91820 13148 ft 273 kts 11°
2026-04-22 18:34 53.14181 10.92386 12899 ft 271 kts 11°
2026-04-22 18:34 53.16031 10.92951 12645 ft 269 kts 11°
2026-04-22 18:34 53.17870 10.93513 12391 ft 267 kts 11°
2026-04-22 18:34 53.19683 10.94067 12141 ft 266 kts 11°
2026-04-22 18:35 53.21503 10.94626 11902 ft 272 kts 11°
2026-04-22 18:35 53.23384 10.95206 11657 ft 276 kts 11°
2026-04-22 18:35 53.25271 10.95786 11415 ft 278 kts 11°
2026-04-22 18:35 53.27164 10.96368 11266 ft 277 kts 11°
2026-04-22 18:36 53.29042 10.96942 10906 ft 269 kts 11°
2026-04-22 18:36 53.30827 10.97482 10521 ft 259 kts 11°
2026-04-22 18:36 53.32567 10.98012 10134 ft 253 kts 10°
2026-04-22 18:36 53.34293 10.98543 9755 ft 251 kts 10°
2026-04-22 18:37 53.36008 10.99071 9374 ft 249 kts 10°
2026-04-22 18:37 53.37684 10.99587 9000 ft 247 kts 10°
2026-04-22 18:37 53.38814 10.99934 8791 ft 246 kts 10°
2026-04-22 18:37 53.41044 11.00625 8460 ft 247 kts 10°
2026-04-22 18:38 53.42739 11.01151 8209 ft 247 kts 10°
2026-04-22 18:38 53.44414 11.01669 7958 ft 246 kts 10°
2026-04-22 18:38 53.46087 11.02187 7707 ft 245 kts 10°
2026-04-22 18:39 53.49419 11.03220 7200 ft 244 kts 10°
2026-04-22 18:39 53.51089 11.03738 6944 ft 242 kts
2026-04-22 18:39 53.52716 11.04243 6694 ft 240 kts
2026-04-22 18:39 53.54354 11.04751 6440 ft 238 kts
2026-04-22 18:40 53.55974 11.05255 6183 ft 236 kts
2026-04-22 18:40 53.57570 11.05750 5917 ft 230 kts
2026-04-22 18:40 53.59115 11.06228 5655 ft 224 kts
2026-04-22 18:40 53.60631 11.06699 5395 ft 222 kts
2026-04-22 18:41 53.62154 11.07175 5135 ft 222 kts
2026-04-22 18:41 53.63670 11.07648 4889 ft 222 kts
2026-04-22 18:41 53.65195 11.08125 4641 ft 221 kts
2026-04-22 18:41 53.66699 11.08594 4385 ft 220 kts
2026-04-22 18:42 53.68191 11.09061 4131 ft 219 kts
2026-04-22 18:42 53.69666 11.09523 4001 ft 212 kts
2026-04-22 18:42 53.71089 11.09969 3949 ft 204 kts
2026-04-22 18:42 53.72477 11.10406 3940 ft 199 kts
2026-04-22 18:43 53.73828 11.10832 3944 ft 195 kts
2026-04-22 18:43 53.75149 11.11248 3949 ft 192 kts
2026-04-22 18:43 53.76439 11.11654 3967 ft 188 kts
2026-04-22 18:43 53.77719 11.12056 3974 ft 185 kts
2026-04-22 18:44 53.78963 11.12443 3977 ft 182 kts
2026-04-22 18:44 53.80206 11.12346 3982 ft 177 kts 345°
2026-04-22 18:44 53.81369 11.11734 3982 ft 176 kts 342°
2026-04-22 18:44 53.82538 11.11087 3977 ft 175 kts 342°
2026-04-22 18:45 53.83698 11.10445 3975 ft 175 kts 342°
2026-04-22 18:45 53.84861 11.09804 3968 ft 175 kts 342°
2026-04-22 18:45 53.86011 11.09155 3959 ft 175 kts 339°
2026-04-22 18:45 53.86891 11.07815 3945 ft 177 kts 295°
2026-04-22 18:46 53.86914 11.05678 3791 ft 193 kts 263°
2026-04-22 18:46 53.86545 11.03445 3469 ft 200 kts 258°
2026-04-22 18:46 53.86113 11.01198 3172 ft 200 kts 255°
2026-04-22 18:46 53.85637 10.99062 3038 ft 185 kts 256°
2026-04-22 18:47 53.85273 10.97063 3003 ft 174 kts 259°
2026-04-22 18:47 53.84940 10.95128 2806 ft 170 kts 259°
2026-04-22 18:47 53.84590 10.93214 2539 ft 170 kts 258°
2026-04-22 18:47 53.84237 10.91339 2287 ft 167 kts 257°
2026-04-22 18:48 53.83888 10.89515 2033 ft 158 kts 258°
2026-04-22 18:48 53.83557 10.87790 1793 ft 147 kts 258°
2026-04-22 18:48 53.83259 10.86232 1582 ft 137 kts 259°
2026-04-22 18:48 53.82983 10.84724 1504 ft 134 kts 259°
2026-04-22 18:49 53.82695 10.83176 1336 ft 142 kts 258°
2026-04-22 18:49 53.82384 10.81541 1139 ft 152 kts 257°
2026-04-22 18:49 53.82057 10.79859 900 ft 145 kts 255°
2026-04-22 18:49 53.81761 10.78330 687 ft 127 kts 256°
2026-04-22 18:50 53.81502 10.76974 549 ft 121 kts 257°
2026-04-22 18:50 53.81223 10.75491 392 ft 145 kts 253°
2026-04-22 18:50 53.80898 10.73781 194 ft 153 kts 253°
2026-04-22 18:50 53.80593 10.72183 55 ft 116 kts 253°
2026-04-22 18:51 53.80403 10.71227 53 ft 64 kts 250°
2026-04-22 18:51 53.80304 10.70743 53 ft 25 kts 253°
2026-04-22 18:51 53.80350 10.70565 53 ft 15 kts 322°
2026-04-22 18:51 53.80384 10.70520 53 ft 0 kts 322°
2026-04-22 18:52 53.80389 10.70513 53 ft 4 kts 322°
2026-04-22 18:52 53.80435 10.70446 53 ft 11 kts 292°
2026-04-22 18:52 53.80441 10.70338 53 ft 7 kts 316°
2026-04-22 18:52 53.80473 10.70298 53 ft 1 kts 323°
2026-04-22 18:53 53.80484 10.70284 53 ft 0 kts 325°